Time,TemperatureF,DewpointF,PressureIn,WindDirection,WindDirectionDegrees,WindSpeedMPH,WindSpeedGustMPH,Humidity,HourlyPrecipIn,Conditions,Clouds,dailyrainin,SoftwareType,DateUTC
2013-10-19 00:00:00,39.4,37.3,29.81,SW,233,0.0,3.0,92,0.00,,,0.00,VWS V14.01,2013-10-19 05:00:00,
2013-10-19 00:30:00,39.4,37.0,29.80,SSW,195,1.0,2.0,91,0.00,,,0.00,VWS V14.01,2013-10-19 05:30:00,
2013-10-19 01:00:00,39.9,36.9,29.79,SW,224,2.0,5.0,89,0.00,,,0.00,VWS V14.01,2013-10-19 06:00:00,
2013-10-19 01:02:00,39.9,36.9,29.79,SW,229,3.0,4.0,89,0.00,,,0.00,VWS V14.01,2013-10-19 06:02:00,
2013-10-19 01:03:00,39.9,36.6,29.79,SSW,210,5.0,5.0,88,0.00,,,0.00,VWS V14.01,2013-10-19 06:03:00,
2013-10-19 01:08:00,40.0,36.7,29.79,SW,227,5.0,7.0,88,0.00,,,0.00,VWS V14.01,2013-10-19 06:08:00,
2013-10-19 01:30:00,39.6,36.3,29.78,South,190,3.0,7.0,88,0.00,,,0.00,VWS V14.01,2013-10-19 06:30:00,
2013-10-19 02:00:00,38.8,36.1,29.77,SW,224,1.0,5.0,90,0.00,,,0.00,VWS V14.01,2013-10-19 07:00:00,
2013-10-19 02:30:00,37.7,35.3,29.77,SW,218,3.0,4.0,91,0.00,,,0.00,VWS V14.01,2013-10-19 07:30:00,
2013-10-19 03:00:00,36.5,34.7,29.76,SW,219,2.0,4.0,93,0.00,,,0.00,VWS V14.01,2013-10-19 08:00:00,
2013-10-19 03:30:00,35.5,34.0,29.75,SW,219,0.0,2.0,94,0.00,,,0.00,VWS V14.01,2013-10-19 08:30:00,
2013-10-19 04:00:00,34.7,33.7,29.73,SW,219,1.0,1.0,96,0.00,,,0.00,VWS V14.01,2013-10-19 09:00:00,
2013-10-19 04:30:00,35.3,34.5,29.72,SW,217,1.0,5.0,97,0.00,,,0.00,VWS V14.01,2013-10-19 09:30:00,
2013-10-19 05:00:00,35.8,34.8,29.71,SSW,193,2.0,4.0,96,0.00,,,0.00,VWS V14.01,2013-10-19 10:00:00,
2013-10-19 05:30:00,36.5,35.5,29.71,SW,224,3.0,5.0,96,0.00,,,0.00,VWS V14.01,2013-10-19 10:30:00,
2013-10-19 06:00:00,36.6,35.6,29.70,SW,225,1.0,8.0,96,0.02,,,0.02,VWS V14.01,2013-10-19 11:00:00,
2013-10-19 06:30:00,36.4,35.6,29.70,SW,231,1.0,6.0,97,0.07,,,0.07,VWS V14.01,2013-10-19 11:30:00,
2013-10-19 07:00:00,36.4,35.6,29.69,SW,231,1.0,2.0,97,0.09,,,0.09,VWS V14.01,2013-10-19 12:00:00,
2013-10-19 07:30:00,35.9,34.9,29.70,WNW,297,2.0,4.0,96,0.10,,,0.12,VWS V14.01,2013-10-19 12:30:00,
2013-10-19 07:48:00,34.6,33.3,29.70,WNW,286,2.0,5.0,95,0.07,,,0.14,VWS V14.01,2013-10-19 12:48:00,
2013-10-19 07:53:00,34.3,33.3,29.70,WNW,290,3.0,5.0,96,0.07,,,0.14,VWS V14.01,2013-10-19 12:53:00,
2013-10-19 07:58:00,34.1,33.1,29.70,WNW,286,1.0,5.0,96,0.08,,,0.15,VWS V14.01,2013-10-19 12:58:00,
2013-10-19 08:00:00,34.1,33.1,29.70,WNW,286,1.0,5.0,96,0.08,,,0.15,VWS V14.01,2013-10-19 13:00:00,
2013-10-19 08:02:00,34.1,33.1,29.70,WNW,286,1.0,2.0,96,0.06,,,0.15,VWS V14.01,2013-10-19 13:02:00,
2013-10-19 08:07:00,34.0,33.0,29.70,WNW,286,1.0,2.0,96,0.07,,,0.16,VWS V14.01,2013-10-19 13:07:00,
2013-10-19 08:12:00,34.0,33.2,29.70,West,281,2.0,2.0,97,0.07,,,0.16,VWS V14.01,2013-10-19 13:12:00,
2013-10-19 08:17:00,34.0,33.2,29.69,West,273,1.0,2.0,97,0.07,,,0.16,VWS V14.01,2013-10-19 13:17:00,
2013-10-19 08:22:00,34.0,33.2,29.69,West,273,0.0,2.0,97,0.07,,,0.16,VWS V14.01,2013-10-19 13:22:00,
2013-10-19 08:27:00,34.1,33.3,29.69,West,273,0.0,2.0,97,0.08,,,0.17,VWS V14.01,2013-10-19 13:27:00,
2013-10-19 08:30:00,34.3,33.5,29.69,West,273,0.0,2.0,97,0.08,,,0.17,VWS V14.01,2013-10-19 13:30:00,
2013-10-19 09:00:00,34.3,33.5,29.69,West,268,0.0,2.0,97,0.07,,,0.19,VWS V14.01,2013-10-19 14:00:00,
2013-10-19 09:30:00,35.1,34.3,29.69,NW,316,2.0,2.0,97,0.04,,,0.19,VWS V14.01,2013-10-19 14:30:00,
2013-10-19 10:00:00,35.0,34.2,29.69,NNW,337,2.0,3.0,97,0.03,,,0.20,VWS V14.01,2013-10-19 15:00:00,
2013-10-19 10:30:00,36.2,35.4,29.69,West,277,4.0,6.0,97,0.02,,,0.21,VWS V14.01,2013-10-19 15:30:00,
2013-10-19 11:00:00,37.8,36.8,29.69,NW,314,4.0,7.0,96,0.02,,,0.21,VWS V14.01,2013-10-19 16:00:00,
2013-10-19 11:30:00,38.8,37.2,29.69,WNW,282,3.0,7.0,94,0.01,,,0.21,VWS V14.01,2013-10-19 16:30:00,
2013-10-19 12:00:00,39.7,37.0,29.69,NW,325,3.0,8.0,90,0.00,,,0.21,VWS V14.01,2013-10-19 17:00:00,
2013-10-19 12:24:00,40.9,37.6,29.69,WNW,284,3.0,6.0,88,0.00,,,0.21,VWS V14.01,2013-10-19 17:24:00,
2013-10-19 12:29:00,41.2,38.2,29.69,NW,318,2.0,6.0,89,0.00,,,0.21,VWS V14.01,2013-10-19 17:29:00,
2013-10-19 12:30:00,41.6,38.3,29.69,NW,313,3.0,6.0,88,0.00,,,0.21,VWS V14.01,2013-10-19 17:30:00,
2013-10-19 12:34:00,41.3,37.1,29.69,North,349,2.0,4.0,85,0.00,,,0.21,VWS V14.01,2013-10-19 17:34:00,
2013-10-19 13:00:00,42.1,36.7,29.69,WNW,290,3.0,6.0,81,0.00,,,0.21,VWS V14.01,2013-10-19 18:00:00,
2013-10-19 13:30:00,42.9,36.5,29.69,NNW,327,4.0,10.0,78,0.00,,,0.21,VWS V14.01,2013-10-19 18:30:00,
2013-10-19 14:00:00,45.4,38.0,29.68,WSW,248,4.0,10.0,75,0.00,,,0.21,VWS V14.01,2013-10-19 19:00:00,
2013-10-19 14:30:00,46.5,34.2,29.68,NNW,331,6.0,13.0,62,0.00,,,0.21,VWS V14.01,2013-10-19 19:30:00,
2013-10-19 15:00:00,46.4,32.0,29.69,NW,313,6.0,11.0,57,0.00,,,0.21,VWS V14.01,2013-10-19 20:00:00,
2013-10-19 15:30:00,45.3,32.7,29.70,NNW,345,4.0,11.0,61,0.00,,,0.21,VWS V14.01,2013-10-19 20:30:00,
2013-10-19 16:00:00,46.2,33.1,29.70,NNW,340,4.0,12.0,60,0.00,,,0.21,VWS V14.01,2013-10-19 21:00:00,
2013-10-19 16:30:00,45.8,32.7,29.71,WNW,300,5.0,11.0,60,0.00,,,0.21,VWS V14.01,2013-10-19 21:30:00,
2013-10-19 17:00:00,46.6,33.0,29.71,WNW,290,7.0,10.0,59,0.00,,,0.21,VWS V14.01,2013-10-19 22:00:00,
2013-10-19 17:30:00,44.8,31.8,29.72,WNW,296,2.0,12.0,60,0.00,,,0.21,VWS V14.01,2013-10-19 22:30:00,
2013-10-19 18:00:00,43.1,31.4,29.73,NW,325,2.0,8.0,63,0.00,,,0.21,VWS V14.01,2013-10-19 23:00:00,
2013-10-19 18:30:00,42.1,32.0,29.74,NW,305,1.0,4.0,67,0.00,,,0.21,VWS V14.01,2013-10-19 23:30:00,
2013-10-19 19:00:00,41.1,32.1,29.75,NW,308,3.0,3.0,70,0.00,,,0.21,VWS V14.01,2013-10-20 00:00:00,
2013-10-19 19:30:00,38.9,30.7,29.76,NW,316,3.0,4.0,72,0.00,,,0.21,VWS V14.01,2013-10-20 00:30:00,
2013-10-19 19:34:00,38.9,30.7,29.76,NW,321,3.0,5.0,72,0.00,,,0.21,VWS V14.01,2013-10-20 00:34:00,
2013-10-19 19:39:00,38.6,30.4,29.76,NNW,335,4.0,5.0,72,0.00,,,0.21,VWS V14.01,2013-10-20 00:39:00,
2013-10-19 19:44:00,38.6,30.4,29.76,NW,322,4.0,5.0,72,0.00,,,0.21,VWS V14.01,2013-10-20 00:44:00,
2013-10-19 19:49:00,38.6,30.4,29.76,NW,324,3.0,5.0,72,0.00,,,0.21,VWS V14.01,2013-10-20 00:49:00,
2013-10-19 19:54:00,38.1,30.2,29.76,NNW,329,3.0,5.0,73,0.00,,,0.21,VWS V14.01,2013-10-20 00:54:00,
2013-10-19 20:00:00,37.6,30.1,29.76,NW,322,0.0,5.0,74,0.00,,,0.21,VWS V14.01,2013-10-20 01:00:00,
2013-10-19 20:30:00,36.6,30.4,29.77,NW,309,1.0,4.0,78,0.00,,,0.21,VWS V14.01,2013-10-20 01:30:00,
2013-10-19 21:00:00,35.1,29.9,29.78,WNW,289,0.0,3.0,81,0.00,,,0.21,VWS V14.01,2013-10-20 02:00:00,
2013-10-19 21:30:00,31.7,28.6,29.78,WNW,289,0.0,2.0,88,0.00,,,0.21,VWS V14.01,2013-10-20 02:30:00,
2013-10-19 22:00:00,30.4,28.1,29.78,WNW,289,0.0,1.0,91,0.00,,,0.21,VWS V14.01,2013-10-20 03:00:00,
2013-10-19 22:30:00,29.5,27.7,29.79,WNW,289,1.0,2.0,93,0.00,,,0.21,VWS V14.01,2013-10-20 03:30:00,
2013-10-19 23:00:00,28.8,27.3,29.79,WNW,289,1.0,3.0,94,0.00,,,0.21,VWS V14.01,2013-10-20 04:00:00,
2013-10-19 23:30:00,28.7,27.5,29.80,WNW,289,0.0,2.0,95,0.00,,,0.21,VWS V14.01,2013-10-20 04:30:00,